[[{"header":{"parameterUnit":"m.s-1","parameterCategory":1,"la1":30.2991,"la2":30.254,"lo1":-89.0895,"lo2":-89.0444,"dy":0.0017,"dx":0.0017,"nx":28,"ny":28,"refTime":"2023-10-01T03:00:00:Z","depth":0,"parameterNumber":2,"parameterNumberName":"U-component_of_WINDS"},"data":[0,0,0,0,0,0,0,0,0,0,0,0,0,0,0,0,0,0,0,0,0,0,0,0,0,0,0,0,0,0,0,0,0,0,0,0,0,0,0,0,0,0,0,0,0,0,0,0,0,0,0,0,0,0,0,0,0,0,-3.3301,-3.3302,0,-3.3438,-3.3439,-3.3441,-3.3403,-3.34,-3.3398,-3.3395,-3.3538,-3.3544,-3.355,0,0,0,0,0,0,0,0,0,0,0,0,0,-3.3008,-3.3014,-3.33,-3.3302,-3.3304,-3.3437,-3.3439,-3.3441,-3.3404,-3.34,-3.3397,-3.3394,-3.3535,-3.3543,-3.3551,0,0,0,0,0,0,0,0,0,0,0,0,0,-3.3139,-3.3016,-3.33,-3.3301,-3.3303,-3.3437,-3.3439,-3.3442,-3.3404,-3.34,-3.3396,-3.3392,-3.3533,-3.3542,-3.3552,-3.3694,0,0,-3.3581,-3.3585,0,0,0,0,0,0,0,0,-3.3132,-3.315,-3.3299,-3.3301,-3.3303,-3.3399,-3.3388,-3.3526,-3.3405,-3.3366,-3.3395,-3.339,-3.3495,-3.3507,-3.3542,-3.3701,-3.3707,-3.3582,-3.3588,-3.3592,-3.3594,0,0,0,0,0,0,0,-3.3123,-3.3144,-3.3355,-3.3302,-3.3304,-3.3296,-3.331,-3.3414,-3.3452,-3.3369,-3.3367,-3.3383,-3.3495,-3.3533,-3.3545,-3.3709,-3.3582,-3.359,-3.3596,-3.36,-3.3992,-3.3997,0,0,0,0,0,0,-3.3112,-3.3137,-3.335,-3.3359,-3.3206,-3.3304,-3.332,-3.3373,-3.3451,-3.3459,-3.3387,-3.3381,-3.3519,-3.3534,-3.355,-3.3723,-3.3592,-3.3601,-3.3606,-3.3988,-3.3993,-3.3999,0,0,0,0,0,0,-3.3106,-3.3131,-3.3345,-3.3247,-3.3274,-3.3314,-3.3373,-3.3377,-3.3415,-3.3464,-3.3471,-3.3418,-3.3516,-3.3537,-3.3659,-3.3727,-3.3605,-3.3614,-3.3982,-3.399,-3.3996,-3.4069,0,0,0,0,0,0,-3.3098,-3.3129,-3.3183,-3.3249,-3.3279,-3.345,-3.3377,-3.3383,-3.3432,-3.3426,-3.3496,-3.3503,-3.3515,-3.3645,-3.3668,-3.3738,-3.3621,-3.3976,-3.3985,-3.3994,-3.406,-3.4077,-3.4092,0,0,0,0,0,-3.3087,-3.3198,-3.3186,-3.3212,-3.3347,-3.3454,-3.3472,-3.3482,-3.3437,-3.3492,-3.3524,-3.3501,-3.3716,-3.3657,-3.3684,-3.3758,-3.3972,-3.3983,-3.3993,-3.4053,-3.4074,-3.4092,0,0,0,0,0,0,-3.314,-3.3207,-3.3194,-3.3329,-3.3387,-3.3448,-3.3517,-3.3503,-3.3575,-3.3566,-3.3576,-3.3592,-3.3717,-3.375,-3.3683,-3.39,-3.3838,-3.3854,-3.3874,-3.3895,-3.391,-3.39,-3.3629,0,0,0,0,0,-3.3168,-3.3249,-3.3303,-3.3417,-3.3446,-3.3477,-3.3524,-3.3527,-3.3587,-3.3611,-3.3651,-3.3711,-3.3792,-3.3845,-3.3922,-3.4065,-3.408,-3.4129,-3.4145,-3.4157,-3.4171,-3.4251,-3.4273,-3.4033,-3.4033,-3.4033,0,0,-3.3225,-3.3272,-3.3322,-3.3429,-3.3473,-3.3558,-3.3498,-3.3589,-3.3652,-3.3625,-3.3742,-3.3775,-3.3842,-3.3975,-3.4036,-3.4006,-3.4241,-3.4171,-3.4181,-3.4188,-3.4264,-3.4287,-3.4307,-3.404,-3.4039,-3.4038,0,0,-3.3373,-3.3416,-3.3516,-3.3563,-3.3631,-3.3651,-3.3675,-3.3739,-3.3759,-3.3877,-3.3858,-3.3934,-3.4073,-3.4122,-3.4165,-3.4333,-3.4315,-3.4358,-3.4441,-3.4518,-3.4537,-3.4554,-3.4614,-3.4636,-3.4372,-3.4372,-3.4372,0,-3.3436,-3.3562,-3.357,-3.3664,-3.3712,-3.3691,-3.3793,-3.3837,-3.3928,-3.3962,-3.3927,-3.4101,-3.4145,-3.429,-3.4331,-3.4367,-3.4396,-3.435,-3.4533,-3.455,-3.4566,-3.4624,-3.4647,-3.4377,-3.4376,-3.4376,-3.4375,0,-3.3637,-3.3724,-3.3797,-3.3885,-3.3941,-3.4039,-3.4062,-3.4118,-3.4117,-3.4141,-3.4262,-3.4314,-3.4402,-3.4436,-3.4436,-3.4582,-3.4562,-3.453,-3.4467,-3.4594,-3.4649,-3.4671,-3.4384,-3.4382,-3.4381,-3.4379,0,0,-3.3821,-3.3912,-3.3939,-3.3979,-3.4053,-3.4122,-3.4219,-3.4304,-3.4353,-3.4416,-3.4499,-3.4617,-3.4589,-3.4638,-3.4643,-3.471,-3.4842,-3.4671,-3.4672,-3.4701,-3.5008,-3.5031,-3.5057,-3.483,-3.4835,-3.4838,-3.5002,0,-3.3976,-3.4146,-3.4157,-3.4312,-3.4393,-3.4375,-3.446,-3.4516,-3.4541,-3.4615,-3.4643,-3.4727,-3.4683,-3.4713,-3.4779,-3.4812,-3.4903,-3.48,-3.4908,-3.4912,-3.4892,-3.5085,-3.511,-3.5263,-3.5024,-3.5027,-3.503,0,-3.4179,-3.4248,-3.4411,-3.4475,-3.451,-3.4586,-3.4666,-3.4736,-3.4799,-3.4813,-3.4868,-3.4864,-3.4965,-3.4899,-3.5039,-3.4968,-3.5014,-3.5037,-3.5043,-3.5054,-3.4979,-3.5102,-3.5312,-3.5335,-3.5064,-3.5061,-3.5059,0,-3.4298,-3.4432,-3.4547,-3.4582,-3.4659,-3.4713,-3.4748,-3.4807,-3.4858,-3.4928,-3.4962,-3.5043,-3.5088,-3.5151,-3.517,-3.5119,-3.531,-3.5245,-3.5325,-3.5325,-3.5366,-3.5363,-3.5587,-3.5395,-3.5394,-3.5394,-3.5393,0,-3.447,-3.4571,-3.4602,-3.4673,-3.4786,-3.4797,-3.4909,-3.494,-3.4993,-3.5071,-3.506,-3.5133,-3.5153,-3.523,-3.5245,-3.536,-3.538,-3.5395,-3.5397,-3.5396,-3.5394,-3.5426,-3.5416,-3.54,-3.5399,-3.5397,-3.5396,0,-3.4622,-3.4647,-3.4771,-3.4834,-3.4853,-3.4933,-3.4987,-3.5056,-3.508,-3.5178,-3.5202,-3.5241,-3.5331,-3.5356,-3.5464,-3.5474,-3.561,-3.5602,-3.5588,-3.5588,-3.5667,-3.566,-3.5919,-3.5954,-3.5739,-3.5741,-3.5742,0,-3.473,-3.4807,-3.4879,-3.4929,-3.4967,-3.5049,-3.5101,-3.5116,-3.5171,-3.5249,-3.5309,-3.5398,-3.547,-3.5616,-3.5654,-3.5737,-3.5733,-3.5818,-3.5745,-3.5741,-3.5735,-3.573,-3.5738,-3.5831,-3.5834,-3.5836,-3.5837,0,-3.492,-3.4929,-3.5004,-3.5084,-3.5147,-3.5211,-3.5272,-3.5315,-3.5339,-3.5402,-3.5494,-3.555,-3.5661,-3.575,-3.5834,-3.5871,-3.5859,-3.586,-3.5883,-3.5882,-3.5871,-3.5879,-3.5626,-3.5854,-3.5852,-3.5851,-3.585,-3.5849,-3.5054,-3.5121,-3.5183,-3.5267,-3.5315,-3.5373,-3.5441,-3.5474,-3.5551,-3.5642,-3.5647,-3.5747,-3.581,-3.5922,-3.5964,-3.6043,-3.6018,-3.6051,-3.606,-3.6068,-3.6075,-3.5858,-3.6059,-3.6058,-3.6058,-3.6057,-3.6057,0,-3.5243,-3.5282,-3.5359,-3.5446,-3.5513,-3.5495,-3.5563,-3.562,-3.5708,-3.5767,-3.5839,-3.5946,-3.6032,-3.6078,-3.6164,-3.6219,-3.6216,-3.6242,-3.6238,-3.6247,-3.6092,-3.6064,-3.6243,-3.6243,-3.6243,-3.6243,-3.6243,-3.6243,-3.5349,-3.5464,-3.548,-3.5619,-3.5657,-3.5755,-3.5795,-3.5849,-3.5896,-3.6016,-3.6088,-3.6116,-3.6171,-3.6262,-3.6341,-3.6352,-3.6385,-3.6414,-3.6422,-3.6277,-3.6258,-3.624,-3.6213,-3.6421,-3.6421,-3.657,-3.6572,-3.6573]},{"header":{"parameterUnit":"m.s-1","parameterCategory":1,"la1":30.2991,"la2":30.254,"lo1":-89.0895,"lo2":-89.0444,"dy":0.0017,"dx":0.0017,"nx":28,"ny":28,"refTime":"2023-10-01T03:00:00:Z","depth":0,"parameterNumber":3,"parameterNumberName":"V-component_of_WINDS"},"data":[0,0,0,0,0,0,0,0,0,0,0,0,0,0,0,0,0,0,0,0,0,0,0,0,0,0,0,0,0,0,0,0,0,0,0,0,0,0,0,0,0,0,0,0,0,0,0,0,0,0,0,0,0,0,0,0,0,0,-2.2194,-2.2193,0,-2.213,-2.2129,-2.2129,-2.207,-2.2069,-2.2068,-2.2067,-2.2001,-2.1999,-2.1998,0,0,0,0,0,0,0,0,0,0,0,0,0,-2.2262,-2.2261,-2.2194,-2.2193,-2.2192,-2.213,-2.2129,-2.2128,-2.207,-2.2069,-2.2068,-2.2067,-2.2001,-2.2,-2.1998,0,0,0,0,0,0,0,0,0,0,0,0,0,-2.2218,-2.226,-2.2194,-2.2155,-2.2151,-2.213,-2.2129,-2.2128,-2.207,-2.2069,-2.2068,-2.2067,-2.2001,-2.2,-2.1998,-2.201,0,0,-2.1993,-2.1992,0,0,0,0,0,0,0,0,-2.2221,-2.2216,-2.2162,-2.2158,-2.2153,-2.2107,-2.2129,-2.2088,-2.207,-2.2101,-2.2067,-2.2066,-2.2037,-2.2032,-2.2022,-2.2006,-2.2003,-2.1993,-2.1992,-2.1991,-2.1991,0,0,0,0,0,0,0,-2.2224,-2.2218,-2.2169,-2.2161,-2.2156,-2.214,-2.2133,-2.2121,-2.2076,-2.2098,-2.2094,-2.2087,-2.2034,-2.2024,-2.202,-2.2002,-2.1993,-2.1991,-2.199,-2.199,-2.199,-2.1991,0,0,0,0,0,0,-2.2233,-2.2221,-2.2171,-2.2167,-2.2185,-2.214,-2.2132,-2.2123,-2.2076,-2.2067,-2.2088,-2.2084,-2.2028,-2.2022,-2.2018,-2.2026,-2.1991,-2.199,-2.1989,-2.1989,-2.199,-2.1991,0,0,0,0,0,0,-2.2235,-2.2229,-2.2173,-2.2193,-2.2184,-2.214,-2.213,-2.2122,-2.2112,-2.2068,-2.2059,-2.2086,-2.2026,-2.202,-2.2011,-2.2023,-2.1989,-2.1987,-2.1988,-2.1989,-2.199,-2.2044,0,0,0,0,0,0,-2.2237,-2.223,-2.2235,-2.2193,-2.2184,-2.2169,-2.2131,-2.2122,-2.211,-2.2104,-2.2064,-2.2056,-2.2025,-2.2014,-2.201,-2.202,-2.1986,-2.1986,-2.1988,-2.199,-2.2041,-2.2048,-2.2053,0,0,0,0,0,-2.224,-2.2253,-2.2236,-2.223,-2.2189,-2.217,-2.2164,-2.2129,-2.2111,-2.2114,-2.2086,-2.2058,-2.2023,-2.2014,-2.2008,-2.2018,-2.1985,-2.1988,-2.199,-2.2039,-2.2046,-2.2053,0,0,0,0,0,0,-2.2297,-2.2247,-2.2227,-2.2227,-2.2203,-2.216,-2.2164,-2.2138,-2.2118,-2.2114,-2.207,-2.2062,-2.2057,-2.2037,-2.2028,-2.2026,-2.2,-2.2001,-2.2039,-2.2046,-2.2052,-2.2056,-2.1985,0,0,0,0,0,-2.231,-2.23,-2.2256,-2.226,-2.2249,-2.2209,-2.2199,-2.2174,-2.2147,-2.2136,-2.2107,-2.2081,-2.2064,-2.2054,-2.2036,-2.2038,-2.2027,-2.2042,-2.2048,-2.2053,-2.2054,-2.2051,-2.2057,-2.1998,-2.1998,-2.1998,0,0,-2.2336,-2.2307,-2.2303,-2.2271,-2.2249,-2.2238,-2.2201,-2.2191,-2.2182,-2.2135,-2.2124,-2.2102,-2.207,-2.2067,-2.2063,-2.2049,-2.2068,-2.2056,-2.206,-2.2059,-2.2054,-2.206,-2.2065,-2.2,-2.2,-2.1999,0,0,-2.2377,-2.2355,-2.2356,-2.2335,-2.2302,-2.2275,-2.2275,-2.2235,-2.2219,-2.2208,-2.2171,-2.2159,-2.2132,-2.211,-2.2095,-2.2127,-2.2099,-2.2122,-2.2152,-2.215,-2.2154,-2.2158,-2.2168,-2.2172,-2.2124,-2.2124,-2.2124,0,-2.2414,-2.2397,-2.2359,-2.2351,-2.2337,-2.2294,-2.2293,-2.2274,-2.2237,-2.2228,-2.2213,-2.2176,-2.2152,-2.2141,-2.2149,-2.2139,-2.2136,-2.2126,-2.2157,-2.216,-2.2163,-2.2172,-2.2176,-2.2127,-2.2126,-2.2126,-2.2126,0,-2.2442,-2.243,-2.2434,-2.24,-2.2387,-2.2383,-2.2343,-2.2333,-2.2309,-2.2283,-2.2271,-2.224,-2.2214,-2.221,-2.2186,-2.2195,-2.2187,-2.2165,-2.2138,-2.2172,-2.218,-2.2183,-2.2131,-2.213,-2.2129,-2.2128,0,0,-2.2518,-2.2462,-2.2464,-2.2447,-2.2408,-2.2398,-2.2391,-2.2366,-2.2358,-2.2333,-2.2325,-2.2302,-2.2281,-2.2264,-2.2237,-2.2235,-2.226,-2.2213,-2.2211,-2.2221,-2.2266,-2.2282,-2.2287,-2.2242,-2.2242,-2.2242,-2.2268,0,-2.2552,-2.2538,-2.2503,-2.2499,-2.2487,-2.2444,-2.2438,-2.2412,-2.2387,-2.2372,-2.2344,-2.2328,-2.2302,-2.2291,-2.2288,-2.2258,-2.2268,-2.2255,-2.2232,-2.2231,-2.224,-2.229,-2.2308,-2.2334,-2.2271,-2.2271,-2.2271,0,-2.259,-2.2568,-2.2563,-2.2523,-2.2516,-2.2512,-2.2484,-2.2471,-2.2441,-2.2422,-2.2403,-2.2373,-2.2361,-2.2337,-2.2319,-2.2312,-2.23,-2.2283,-2.2283,-2.2279,-2.2253,-2.2286,-2.2341,-2.2345,-2.2276,-2.2276,-2.2275,0,-2.2644,-2.2614,-2.2606,-2.2593,-2.2547,-2.2544,-2.2524,-2.2492,-2.2478,-2.2455,-2.2445,-2.242,-2.2406,-2.2387,-2.235,-2.2336,-2.2336,-2.2309,-2.2319,-2.232,-2.232,-2.232,-2.2373,-2.2315,-2.2315,-2.2314,-2.2314,0,-2.2685,-2.2684,-2.263,-2.2625,-2.2621,-2.258,-2.2577,-2.2553,-2.2525,-2.2513,-2.2475,-2.2465,-2.2418,-2.2402,-2.2373,-2.2361,-2.2355,-2.2339,-2.2331,-2.2342,-2.2344,-2.2333,-2.233,-2.2315,-2.2315,-2.2315,-2.2315,0,-2.2745,-2.271,-2.2698,-2.2655,-2.2643,-2.2642,-2.2604,-2.2597,-2.2569,-2.2555,-2.2549,-2.2506,-2.2484,-2.2446,-2.2414,-2.2394,-2.2388,-2.2375,-2.2399,-2.2394,-2.2405,-2.2404,-2.2451,-2.2454,-2.2396,-2.2397,-2.2397,0,-2.2774,-2.2771,-2.2727,-2.2717,-2.2698,-2.2683,-2.2668,-2.2628,-2.2614,-2.2578,-2.2575,-2.2551,-2.2529,-2.2497,-2.2461,-2.2436,-2.2421,-2.244,-2.2417,-2.2428,-2.242,-2.242,-2.2419,-2.2445,-2.2445,-2.2446,-2.2447,0,-2.2827,-2.2809,-2.279,-2.2765,-2.275,-2.2728,-2.2704,-2.2697,-2.2651,-2.2637,-2.2615,-2.2599,-2.2565,-2.2541,-2.251,-2.2488,-2.2459,-2.2454,-2.2455,-2.2465,-2.2478,-2.247,-2.2411,-2.2453,-2.2452,-2.2452,-2.2452,-2.2451,-2.287,-2.2865,-2.2833,-2.2813,-2.2791,-2.2769,-2.276,-2.2731,-2.2712,-2.2682,-2.2659,-2.2638,-2.2605,-2.2561,-2.254,-2.2522,-2.2509,-2.251,-2.251,-2.2511,-2.2514,-2.2482,-2.2517,-2.2516,-2.2516,-2.2516,-2.2516,0,-2.292,-2.2897,-2.2879,-2.2847,-2.2831,-2.2806,-2.2777,-2.2765,-2.2748,-2.272,-2.2699,-2.2673,-2.2649,-2.2611,-2.2583,-2.2576,-2.2562,-2.257,-2.257,-2.2564,-2.2529,-2.253,-2.2582,-2.2582,-2.2582,-2.2582,-2.2582,-2.2582,-2.2944,-2.2934,-2.2912,-2.289,-2.2866,-2.2846,-2.2832,-2.2811,-2.2788,-2.276,-2.274,-2.2716,-2.2683,-2.2653,-2.2629,-2.2618,-2.2609,-2.2621,-2.2606,-2.2574,-2.2567,-2.2561,-2.2563,-2.262,-2.262,-2.2643,-2.2643,-2.2643]}]]